Willimantic, CT

1:18 AM EDT on April 27, 2017 (GMT -0400)
Windham

Weather History for KIJD - August, 2014

Change the Weather History Date:

Saturday, August 23, 2014

  Actual Average Record
Temperature  
Mean Temperature 67 °F -  
Max Temperature 75 °F 79 °F 93 °F (1976)
Min Temperature 57 °F 53 °F 39 °F (1957)
Cooling Degree Days 2    
Growing Degree Days 17 (Base 50)    
Moisture  
Dew Point 58 °F    
Average Humidity 77    
Maximum Humidity 89    
Minimum Humidity 53    
Precipitation  
Precipitation 0.00 in - - ()
Sea Level Pressure  
Sea Level Pressure 30.11 in    
Wind  
Wind Speed 6 mph (NNE)    
Max Wind Speed 13 mph    
Max Gust Speed -    
Visibility 10 miles    
Events      
Averages and records for this station are not official NWS values.
T = Trace of Precipitation, MM = Missing Value Source: NWS Daily Summary

Daily Weather History Graph

Daily Weather History Graph

Search for Another Location

Airport or City:

Trip Planner

Search our weather history database for the weather conditions in past years. The results will help you decide how hot, cold, wet, or windy it might be!

Date:

Astronomy

Aug. 23, 2014 Rise Set
Actual Time 6:05 AM EDT 7:36 PM EDT
Civil Twilight 5:36 AM EDT 8:05 PM EDT
Nautical Twilight 5:00 AM EDT 8:40 PM EDT
Astronomical Twilight 4:23 AM EDT 9:18 PM EDT
Moon 4:18 AM EDT (8/23) 6:19 PM EDT (8/23)
Length of Visible Light 14h 29m
Length of Day
13h 31m
Waning Crescent, 3% of the Moon is Illuminated
Aug 23
Waning Crescent
Aug 25
New
Sep 2
First Quarter
Sep 8
Full
Sep 15
Last Quarter

Hourly Weather History & Observations

Time (EDT) Temp. Dew Point Humidity Pressure Visibility Wind Dir Wind Speed Gust Speed Precip Events Conditions
12:52 AM 64.0 °F 60.1 °F 87% 30.10 in 10.0 mi North 4.6 mph - N/A   Overcast
1:52 AM 64.0 °F 60.1 °F 87% 30.09 in 10.0 mi NE 3.5 mph - N/A   Scattered Clouds
2:52 AM 64.0 °F 60.1 °F 87% 30.08 in 10.0 mi North 3.5 mph - N/A   Mostly Cloudy
3:11 AM 64.0 °F 60.1 °F 87% 30.08 in 10.0 mi North 3.5 mph - N/A   Overcast
3:38 AM 64.0 °F 60.1 °F 87% 30.08 in 10.0 mi NNE 6.9 mph - N/A   Overcast
3:52 AM 64.0 °F 60.1 °F 87% 30.08 in 10.0 mi NNE 6.9 mph - N/A   Mostly Cloudy
4:44 AM 64.0 °F 59.0 °F 84% 30.08 in 10.0 mi North 4.6 mph - N/A   Mostly Cloudy
4:52 AM 63.0 °F 59.0 °F 87% 30.09 in 10.0 mi North 4.6 mph - N/A   Mostly Cloudy
5:32 AM 63.0 °F 59.0 °F 87% 30.09 in 10.0 mi North 4.6 mph - N/A   Overcast
5:52 AM 63.0 °F 59.0 °F 87% 30.09 in 10.0 mi North 6.9 mph - N/A   Mostly Cloudy
5:59 AM 63.0 °F 59.0 °F 87% 30.09 in 10.0 mi NNE 8.1 mph - N/A   Scattered Clouds
6:52 AM 63.0 °F 59.0 °F 87% 30.11 in 10.0 mi NNE 5.8 mph - N/A   Mostly Cloudy
7:27 AM 64.0 °F 59.0 °F 84% 30.11 in 10.0 mi Variable 4.6 mph - N/A   Overcast
7:52 AM 64.0 °F 57.9 °F 80% 30.11 in 10.0 mi NNE 8.1 mph - N/A   Mostly Cloudy
8:02 AM 64.0 °F 57.9 °F 80% 30.11 in 10.0 mi NE 9.2 mph - N/A   Scattered Clouds
8:52 AM 66.0 °F 57.0 °F 73% 30.12 in 10.0 mi NE 9.2 mph - N/A   Partly Cloudy
9:52 AM 69.1 °F 55.9 °F 63% 30.12 in 10.0 mi ENE 12.7 mph - N/A   Mostly Cloudy
10:59 AM 71.1 °F 55.9 °F 59% 30.12 in 10.0 mi NE 12.7 mph - N/A   Mostly Cloudy
11:52 AM 71.1 °F 55.9 °F 59% 30.12 in 10.0 mi NNE 10.4 mph - N/A   Mostly Cloudy
12:52 PM 73.0 °F 55.0 °F 53% 30.11 in 10.0 mi ENE 12.7 mph - N/A   Mostly Cloudy
1:52 PM 73.0 °F 55.9 °F 55% 30.10 in 10.0 mi East 6.9 mph - N/A   Overcast
2:52 PM 73.0 °F 55.9 °F 55% 30.11 in 10.0 mi ENE 5.8 mph - N/A   Overcast
3:52 PM 72.0 °F 55.9 °F 57% 30.10 in 10.0 mi NE 9.2 mph - N/A   Overcast
5:52 PM 71.1 °F 57.0 °F 61% 30.12 in 10.0 mi NNE 5.8 mph - N/A   Overcast
6:52 PM 70.0 °F 59.0 °F 68% 30.12 in 10.0 mi NE 6.9 mph - N/A   Overcast
7:52 PM 66.0 °F 57.9 °F 75% 30.13 in 10.0 mi Calm Calm - N/A   Clear
8:52 PM 63.0 °F 57.9 °F 84% 30.13 in 10.0 mi NE 3.5 mph - N/A   Clear
9:52 PM 61.0 °F 57.0 °F 87% 30.14 in 10.0 mi Calm Calm - N/A   Clear
11:52 PM 57.0 °F 54.0 °F 89% 30.14 in 10.0 mi North 3.5 mph - N/A   Clear